• In Netherlands
  • List of Countries
  • For 7 days
  • Water Temperature
  • Satellite Maps
  • Weather Map
  • Weather Widgets
  • user-avatar
    Login

    Hourly Weather Byala

    Today, 25 March, Saturday

    Time Temperature Precipitation Wind Pressure Humidity
    00:00 +6°C° 0 mm 2 mps 755 mmHg 76%
    01:00 +7°C° 0 mm 1 mps 755 mmHg 77%
    02:00 +7°C° 0 mm 1 mps 755 mmHg 78%
    03:00 +7°C° 0 mm 1 mps 755 mmHg 79%
    04:00 +7°C° 0 mm 1 mps 755 mmHg 79%
    05:00 +7°C° 0 mm 1 mps 755 mmHg 80%
    06:00 +8°C° 0 mm 2 mps 755 mmHg 79%
    07:00 +9°C° 0 mm 3 mps 756 mmHg 79%
    08:00 +10°C° 0 mm 4 mps 756 mmHg 79%
    09:00 +11°C° 0 mm 4 mps 756 mmHg 78%
    10:00 +10°C° 0 mm 5 mps 756 mmHg 78%
    11:00 +11°C° 0 mm 6 mps 756 mmHg 78%
    12:00 +10°C° 0 mm 6 mps 756 mmHg 78%
    13:00 +10°C° 0 mm 6 mps 756 mmHg 79%
    14:00 +9°C° 0 mm 6 mps 756 mmHg 80%
    15:00 +9°C° 0 mm 5 mps 755 mmHg 80%
    16:00 +9°C° 0 mm 5 mps 755 mmHg 80%
    17:00 +8°C° 0 mm 4 mps 755 mmHg 80%
    18:00 +8°C° 0 mm 4 mps 755 mmHg 83%
    19:00 +8°C° 0 mm 3 mps 755 mmHg 86%
    20:00 +7°C° 0 mm 3 mps 755 mmHg 89%
    21:00 +7°C° 0 mm 2 mps 755 mmHg 89%
    22:00 +6°C° 0 mm 2 mps 755 mmHg 90%
    23:00 +7°C° 0 mm 1 mps 755 mmHg 90%

    Tomorrow, 26 March, Sunday

    Time Temperature Precipitation Wind Pressure Humidity
    00:00 +7°C° 0 mm 1 mps 754 mmHg 91%
    01:00 +6°C° 0 mm 1 mps 754 mmHg 93%
    02:00 +6°C° 0 mm 1 mps 754 mmHg 94%
    03:00 +5°C° 0 mm 1 mps 753 mmHg 94%
    04:00 +4°C° 0 mm 2 mps 753 mmHg 95%
    05:00 +4°C° 0 mm 2 mps 752 mmHg 95%
    06:00 +6°C° 0 mm 2 mps 752 mmHg 92%
    07:00 +7°C° 0 mm 2 mps 752 mmHg 89%
    08:00 +8°C° 0 mm 2 mps 752 mmHg 86%
    09:00 +10°C° 0 mm 2 mps 751 mmHg 78%
    10:00 +12°C° 0 mm 2 mps 751 mmHg 70%
    11:00 +13°C° 0 mm 3 mps 751 mmHg 62%
    12:00 +13°C° 0 mm 3 mps 751 mmHg 61%
    13:00 +14°C° 0 mm 3 mps 750 mmHg 59%
    14:00 +14°C° 0 mm 3 mps 750 mmHg 58%
    15:00 +13°C° 0.1 mm 3 mps 750 mmHg 61%
    16:00 +13°C° 0.1 mm 4 mps 750 mmHg 64%
    17:00 +12°C° 0.1 mm 4 mps 750 mmHg 66%
    18:00 +9°C° 0 mm 5 mps 750 mmHg 72%
    19:00 +8°C° 0 mm 6 mps 751 mmHg 77%
    20:00 +5°C° 0 mm 7 mps 751 mmHg 82%
    21:00 +5°C° 0 mm 7 mps 751 mmHg 81%
    22:00 +5°C° 0 mm 6 mps 752 mmHg 80%
    23:00 +5°C° 0 mm 6 mps 752 mmHg 79%

    Day after tomorrow, 27 March, Monday

    Time Temperature Precipitation Wind Pressure Humidity
    00:00 +4°C° 0.1 mm 6 mps 752 mmHg 78%
    01:00 +4°C° 0.1 mm 6 mps 753 mmHg 78%
    02:00 +4°C° 0.1 mm 6 mps 753 mmHg 77%
    03:00 +3°C° 0.1 mm 6 mps 753 mmHg 79%
    04:00 +3°C° 0.1 mm 6 mps 753 mmHg 80%
    05:00 +3°C° 0.1 mm 6 mps 753 mmHg 82%
    06:00 +3°C° 0 mm 6 mps 754 mmHg 81%
    07:00 +3°C° 0 mm 6 mps 754 mmHg 80%
    08:00 +4°C° 0 mm 7 mps 755 mmHg 79%
    09:00 +5°C° 0 mm 6 mps 755 mmHg 74%
    10:00 +7°C° 0 mm 6 mps 755 mmHg 68%
    11:00 +8°C° 0 mm 6 mps 755 mmHg 62%
    12:00 +9°C° 0 mm 5 mps 755 mmHg 59%
    13:00 +9°C° 0 mm 5 mps 755 mmHg 57%
    14:00 +11°C° 0 mm 4 mps 755 mmHg 54%
    15:00 +11°C° 0 mm 4 mps 755 mmHg 54%
    16:00 +10°C° 0 mm 3 mps 755 mmHg 55%
    17:00 +10°C° 0 mm 3 mps 755 mmHg 56%
    18:00 +8°C° 0 mm 2 mps 755 mmHg 62%
    19:00 +7°C° 0 mm 2 mps 755 mmHg 68%
    20:00 +5°C° 0 mm 2 mps 756 mmHg 74%
    21:00 +5°C° 0 mm 2 mps 756 mmHg 73%
    22:00 +5°C° 0 mm 2 mps 756 mmHg 72%
    23:00 +4°C° 0 mm 2 mps 757 mmHg 71%

    28 March, Tuesday

    Time Temperature Precipitation Wind Pressure Humidity
    00:00 +3°C° 0 mm 3 mps 757 mmHg 71%
    01:00 +3°C° 0 mm 3 mps 757 mmHg 71%
    02:00 +3°C° 0 mm 4 mps 757 mmHg 71%
    03:00 +3°C° 0 mm 4 mps 757 mmHg 74%
    04:00 +2°C° 0 mm 5 mps 757 mmHg 77%
    05:00 +2°C° 0 mm 5 mps 758 mmHg 80%
    06:00 +3°C° 0 mm 5 mps 758 mmHg 76%
    07:00 +3°C° 0 mm 5 mps 758 mmHg 71%
    08:00 +5°C° 0 mm 5 mps 759 mmHg 66%
    09:00 +7°C° 0 mm 5 mps 759 mmHg 61%
    10:00 +8°C° 0 mm 5 mps 759 mmHg 56%
    11:00 +9°C° 0 mm 5 mps 759 mmHg 51%
    12:00 +10°C° 0 mm 4 mps 759 mmHg 49%
    13:00 +11°C° 0 mm 4 mps 759 mmHg 48%
    14:00 +12°C° 0 mm 4 mps 758 mmHg 46%
    15:00 +11°C° 0 mm 3 mps 758 mmHg 49%
    16:00 +11°C° 0 mm 3 mps 758 mmHg 52%
    17:00 +11°C° 0 mm 3 mps 758 mmHg 55%
    18:00 +9°C° 0 mm 2 mps 758 mmHg 63%
    19:00 +7°C° 0 mm 2 mps 758 mmHg 70%
    20:00 +5°C° 0 mm 2 mps 758 mmHg 78%
    21:00 +5°C° 0 mm 2 mps 758 mmHg 79%
    22:00 +4°C° 0 mm 2 mps 758 mmHg 80%
    23:00 +4°C° 0 mm 2 mps 758 mmHg 82%

    29 March, Wednesday

    Time Temperature Precipitation Wind Pressure Humidity
    00:00 +4°C° 0 mm 2 mps 758 mmHg 81%
    01:00 +4°C° 0 mm 2 mps 758 mmHg 80%
    02:00 +4°C° 0 mm 2 mps 758 mmHg 79%
    03:00 +4°C° 0 mm 2 mps 758 mmHg 79%
    04:00 +4°C° 0 mm 3 mps 758 mmHg 79%
    05:00 +4°C° 0 mm 3 mps 758 mmHg 79%
    06:00 +5°C° 0 mm 3 mps 759 mmHg 75%
    07:00 +7°C° 0 mm 3 mps 759 mmHg 71%
    08:00 +9°C° 0 mm 3 mps 759 mmHg 67%
    09:00 +11°C° 0 mm 3 mps 759 mmHg 62%
    10:00 +13°C° 0 mm 4 mps 760 mmHg 57%
    11:00 +14°C° 0 mm 4 mps 760 mmHg 52%
    12:00 +15°C° 0 mm 4 mps 759 mmHg 52%
    13:00 +15°C° 0 mm 4 mps 759 mmHg 52%
    14:00 +15°C° 0 mm 4 mps 759 mmHg 52%
    15:00 +15°C° 0 mm 4 mps 759 mmHg 56%
    16:00 +14°C° 0 mm 4 mps 759 mmHg 59%
    17:00 +13°C° 0 mm 3 mps 759 mmHg 62%
    18:00 +11°C° 0 mm 3 mps 759 mmHg 70%
    19:00 +9°C° 0 mm 2 mps 759 mmHg 78%
    20:00 +7°C° 0 mm 2 mps 760 mmHg 85%
    21:00 +8°C° 0 mm 1 mps 760 mmHg 86%
    22:00 +7°C° 0 mm 1 mps 760 mmHg 87%
    23:00 +7°C° 0 mm 1 mps 760 mmHg 88%

    30 March, Thursday

    Time Temperature Precipitation Wind Pressure Humidity
    00:00 +7°C° 0 mm 1 mps 760 mmHg 88%
    01:00 +6°C° 0 mm 1 mps 760 mmHg 88%
    02:00 +5°C° 0 mm 0 mps 759 mmHg 89%
    03:00 +6°C° 0 mm 1 mps 759 mmHg 89%
    04:00 +6°C° 0 mm 1 mps 759 mmHg 88%
    05:00 +5°C° 0 mm 1 mps 759 mmHg 88%
    06:00 +7°C° 0 mm 1 mps 759 mmHg 82%
    07:00 +9°C° 0 mm 1 mps 759 mmHg 76%
    08:00 +11°C° 0 mm 1 mps 759 mmHg 70%
    09:00 +13°C° 0 mm 1 mps 759 mmHg 64%
    10:00 +15°C° 0 mm 1 mps 759 mmHg 59%
    11:00 +18°C° 0 mm 1 mps 758 mmHg 53%
    12:00 +17°C° 0 mm 2 mps 758 mmHg 51%
    13:00 +18°C° 0 mm 2 mps 757 mmHg 50%
    14:00 +18°C° 0 mm 2 mps 757 mmHg 48%
    15:00 +18°C° 0 mm 3 mps 757 mmHg 51%
    16:00 +17°C° 0 mm 3 mps 756 mmHg 54%
    17:00 +17°C° 0 mm 3 mps 756 mmHg 57%
    18:00 +14°C° 0 mm 3 mps 756 mmHg 65%
    19:00 +11°C° 0 mm 3 mps 756 mmHg 73%
    20:00 +9°C° 0 mm 2 mps 756 mmHg 80%
    21:00 +9°C° 0 mm 3 mps 756 mmHg 80%
    22:00 +9°C° 0 mm 3 mps 757 mmHg 79%
    23:00 +9°C° 0 mm 3 mps 757 mmHg 78%
    Show more